1485003600.49,64220,9.81,74158.5,1.61,-31.67,-34.07,0,*7A
1485003601.74,64221,9.81,74158.3,1.61,-32.07,-34.53,0,*7F
1485003603.0,64222,9.81,74156.8,1.59,-32.07,-34.47,0,*72
1485003604.25,64223,9.81,74156.3,1.61,-31.85,-34.35,0,*74
1485003605.47,64224,9.81,74156.8,1.61,-31.73,-34.25,0,*7B
1485003606.72,64225,9.81,74154.8,1.59,-31.95,-34.41,0,*7B
1485003607.97,64226,9.81,74156.0,1.59,-32.07,-34.41,0,*70
1485003609.2,64227,9.81,74154.5,1.61,-32.07,-34.25,0,*78
1485003610.44,64228,9.81,74156.3,1.59,-31.79,-34.31,0,*73
1485003611.67,64229,9.81,74158.0,1.57,-32.23,-34.65,0,*71
1485003612.89,64230,9.81,74156.5,1.57,-31.95,-34.41,0,*71
1485003614.11,64231,9.81,74156.8,1.57,-31.91,-34.25,0,*76
1485003615.34,64232,9.81,74158.5,1.57,-32.07,-34.47,0,*7D
1485003616.6,64233,9.81,74156.8,1.59,-31.95,-34.47,0,*7A
1485003617.82,64234,9.81,74158.0,1.57,-31.73,-34.13,0,*7A
1485003619.02,64235,9.81,74156.5,1.57,-31.67,-33.83,0,*70
1485003620.24,64236,9.81,74160.5,1.57,-31.67,-34.01,0,*7E
1485003621.44,64237,9.81,74158.3,1.57,-32.13,-34.47,0,*7D
1485003622.66,64238,9.81,74156.0,1.57,-32.45,-34.77,0,*72
1485003623.91,64239,9.81,74154.3,1.57,-32.29,-34.65,0,*7A
1485003625.17,64240,9.81,74152.0,1.55,-32.01,-34.35,0,*79
1485003626.39,64241,9.81,74158.8,1.55,-31.79,-34.13,0,*70
1485003627.64,64242,9.81,74152.5,1.55,-31.79,-34.19,0,*79
1485003628.87,64243,9.81,74162.8,1.55,-31.79,-34.07,0,*77
1485003630.15,64244,9.81,74158.5,1.55,-31.73,-34.19,0,*75
1485003631.41,64245,9.81,74156.8,1.55,-32.13,-34.65,0,*7A
1485003632.63,64246,9.81,74156.5,1.53,-32.29,-34.71,0,*73
1485003633.91,64247,9.81,74156.0,1.55,-32.19,-34.53,0,*77
1485003635.16,64248,9.81,74154.3,1.53,-31.95,-34.31,0,*7D
1485003636.41,64249,9.81,74158.5,1.53,-31.85,-34.19,0,*77
1485003637.61,64250,9.81,74152.5,1.53,-31.79,-34.07,0,*73
1485003638.84,64251,9.81,74158.0,1.53,-31.61,-33.95,0,*77
1485003640.04,64252,9.81,74156.3,1.53,-31.79,-34.13,0,*74
1485003641.24,64253,9.81,74154.8,1.53,-31.79,-34.13,0,*75
1485003642.47,64254,9.81,74156.5,1.55,-31.79,-34.13,0,*74
1485003643.7,64255,9.81,74158.0,1.53,-31.73,-34.07,0,*7C
1485003644.92,64256,9.81,74156.8,1.53,-32.01,-34.35,0,*78
1485003646.21,64257,9.81,74158.3,1.55,-32.19,-34.53,0,*76
1485003647.42,64258,9.81,74156.8,1.53,-32.01,-34.47,0,*73
1485003648.69,64259,9.81,74158.0,1.55,-31.95,-34.19,0,*71
1485003649.95,64260,9.81,74154.5,1.55,-32.01,-34.35,0,*7B
1485003651.16,64261,9.81,74156.3,1.53,-32.01,-34.47,0,*79
1485003652.39,64262,9.81,74154.8,1.53,-32.19,-34.47,0,*73
1485003653.62,64263,9.81,74156.5,1.55,-32.01,-34.47,0,*7D
1485003654.85,64264,9.81,74154.3,1.53,-31.61,-34.07,0,*7D
1485003656.1,64265,9.81,74152.5,1.53,-31.85,-34.19,0,*79
1485003657.3,64266,9.81,74156.5,1.53,-31.79,-34.07,0,*76
1485003658.53,64267,9.81,74156.0,1.53,-31.85,-34.13,0,*71
1485003659.73,64268,9.81,74156.8,1.53,-31.79,-34.13,0,*7D
1485003660.96,64269,9.81,74158.0,1.53,-31.73,-33.95,0,*7F
1485003662.16,64270,9.81,74156.8,1.53,-31.79,-34.13,0,*74
1485003663.44,64271,9.81,74158.5,1.55,-31.95,-34.35,0,*75
1485003664.65,64272,9.81,74154.8,1.53,-32.01,-34.47,0,*7B
1485003665.88,64273,9.81,74158.0,1.53,-32.01,-34.19,0,*71
1485003667.08,64274,9.81,74156.3,1.53,-32.13,-34.47,0,*7E
1485003668.28,64275,9.81,74156.8,1.53,-32.13,-34.47,0,*7F
1485003669.53,64276,9.81,74156.0,1.53,-31.95,-34.35,0,*74
1485003670.74,64277,9.81,74152.5,1.53,-32.13,-34.47,0,*7D
1485003671.96,64278,9.81,74154.0,1.53,-32.01,-34.35,0,*74
1485003673.21,64279,9.81,74154.0,1.53,-31.95,-34.19,0,*75
1485003674.47,64280,9.81,74156.8,1.53,-31.61,-33.89,0,*76
1485003675.7,64281,9.81,74158.0,1.53,-31.45,-33.73,0,*74
1485003676.93,64282,9.81,74148.5,1.53,-31.29,-33.73,0,*7D
1485003678.16,64283,9.81,74152.8,1.53,-31.29,-33.43,0,*7F
1485003679.41,64284,9.81,74148.8,1.53,-31.39,-33.61,0,*79
1485003680.63,64285,9.81,74154.5,1.53,-31.29,-33.61,0,*79
1485003681.86,64286,9.81,74154.8,1.53,-31.23,-33.55,0,*77
1485003683.11,64287,9.81,74156.0,1.55,-31.61,-33.95,0,*7A
1485003684.34,64288,9.81,74154.5,1.53,-31.73,-34.07,0,*7C
1485003685.57,64289,9.81,74152.3,1.55,-31.79,-34.13,0,*74
1485003686.83,64290,9.81,74150.5,1.55,-32.01,-34.53,0,*74
1485003688.09,64291,9.81,74154.3,1.55,-32.19,-34.47,0,*79
1485003689.35,64292,9.81,74154.5,1.55,-32.19,-34.47,0,*7A
1485003690.62,64293,9.81,74152.0,1.55,-31.95,-34.19,0,*77
1485003691.87,64294,9.81,74152.0,1.53,-31.95,-34.31,0,*7C
1485003693.15,64295,9.81,74154.5,1.55,-32.29,-34.65,0,*7E
1485003694.36,64296,9.81,74152.0,1.53,-32.69,-35.01,0,*7C
1485003695.59,64297,9.81,74152.8,1.53,-32.35,-34.53,0,*72
1485003696.82,64298,9.81,74154.8,1.53,-32.19,-34.47,0,*76
1485003698.07,64299,9.81,74152.3,1.53,-32.19,-34.65,0,*77
1485003699.28,64300,9.81,74154.5,1.53,-32.01,-34.47,0,*7F
1485003700.51,64301,9.81,74154.0,1.51,-32.35,-34.59,0,*74
1485003701.73,64302,9.81,74152.8,1.51,-32.51,-34.71,0,*7F
1485003702.96,64303,9.81,74158.0,1.51,-32.51,-34.89,0,*79
1485003704.19,64304,9.81,74156.8,1.51,-32.51,-34.77,0,*7F
1485003705.47,64305,9.81,74152.5,1.51,-32.85,-34.95,0,*7B
1485003706.69,64306,9.81,74156.8,1.49,-32.29,-34.59,0,*77
1485003707.93,64307,9.81,74152.8,1.49,-32.07,-34.47,0,*75
1485003709.12,64308,9.81,74154.5,1.49,-32.23,-34.59,0,*73
1485003710.37,64309,9.81,74152.5,1.51,-32.19,-34.41,0,*7B
1485003711.65,64310,9.81,74148.5,1.51,-32.07,-34.35,0,*7F
1485003712.9,64311,9.81,74154.3,1.49,-31.91,-34.01,0,*7C
1485003714.18,64312,9.81,74154.0,1.51,-32.07,-34.35,0,*7D
1485003715.43,64313,9.81,74148.0,1.49,-31.95,-34.19,0,*73
1485003716.65,64314,9.81,74152.3,1.49,-32.13,-34.31,0,*73
1485003717.86,64315,9.81,74150.0,1.49,-32.29,-34.41,0,*7C
1485003719.06,64316,9.81,74154.5,1.49,-32.01,-34.25,0,*77
1485003720.34,64317,9.81,74158.5,1.51,-32.19,-34.53,0,*77
1485003721.57,64318,9.81,74154.8,1.51,-32.51,-34.77,0,*72
1485003722.82,64319,9.81,74148.3,1.49,-31.95,-34.31,0,*73
1485003724.02,64320,9.81,74150.5,1.49,-32.23,-34.59,0,*79
1485003725.25,64321,9.81,74152.5,1.49,-32.45,-34.77,0,*74
1485003726.53,64322,9.81,74154.3,1.47,-32.45,-34.65,0,*7A
1485003727.78,64323,9.88,74156.8,1.47,-32.29,-34.77,0,*72
1485003729.06,64324,9.81,74154.3,1.47,-32.07,-34.31,0,*7B
1485003730.31,64325,9.81,74150.8,1.47,-32.29,-34.47,0,*77
1485003731.54,64326,9.81,74154.8,1.49,-32.45,-34.77,0,*73
1485003732.73,64327,9.88,74152.5,1.49,-32.23,-34.41,0,*77
1485003733.98,64328,9.81,74152.3,1.49,-32.07,-34.31,0,*79
1485003735.23,64329,9.88,74152.8,1.47,-32.07,-34.25,0,*73
1485003736.51,64330,9.81,74154.0,1.47,-32.07,-34.31,0,*7E
1485003737.76,64331,9.88,74154.5,1.49,-32.07,-34.31,0,*71
1485003738.95,64332,9.88,74156.3,1.49,-32.13,-34.41,0,*70
1485003740.18,64333,9.88,74156.5,1.49,-32.39,-34.65,0,*7F
1485003741.41,64334,9.81,74152.0,1.47,-32.13,-34.41,0,*78
1485003742.67,64335,9.81,74152.0,1.47,-32.39,-34.65,0,*77
1485003743.87,64336,9.81,74154.5,1.49,-32.13,-34.47,0,*72
1485003745.09,64337,9.81,74152.3,1.49,-32.29,-34.59,0,*75
1485003746.32,64338,9.81,74148.8,1.49,-32.45,-34.77,0,*7C
1485003747.54,64339,9.81,74152.0,1.49,-32.29,-34.77,0,*77
1485003748.76,64340,9.88,74154.5,1.49,-32.29,-34.47,0,*7A
1485003750.02,64341,9.81,74152.3,1.47,-32.39,-34.65,0,*74
1485003751.26,64342,9.88,74156.0,1.47,-32.39,-34.77,0,*74
1485003752.5,64343,9.81,74154.8,1.47,-32.29,-34.59,0,*78
1485003753.75,64344,9.81,74152.8,1.47,-32.07,-34.25,0,*78
1485003755.03,64345,9.88,74152.8,1.47,-32.29,-34.65,0,*71
1485003756.31,64346,9.81,74152.3,1.47,-32.07,-34.31,0,*7F
1485003757.56,64347,9.88,74152.8,1.47,-31.91,-34.25,0,*77
1485003758.81,64348,9.81,74150.3,1.47,-31.95,-34.07,0,*7C
1485003760.1,64349,9.88,74154.0,1.47,-31.85,-33.89,0,*7D
1485003761.35,64350,9.88,74152.0,1.47,-31.95,-34.25,0,*75
1485003762.63,64351,9.81,74154.3,1.47,-31.91,-34.01,0,*76
1485003763.88,64352,9.88,74154.8,1.45,-31.95,-34.31,0,*70
1485003765.17,64353,9.88,74158.0,1.47,-31.85,-33.89,0,*76
1485003766.42,64354,9.88,74152.5,1.47,-32.39,-34.65,0,*70
1485003767.67,64355,9.88,74150.8,1.49,-32.63,-34.83,0,*78
1485003768.91,64356,9.81,74152.0,1.45,-32.51,-34.65,0,*7E
1485003770.12,64357,9.88,74152.5,1.45,-32.69,-35.01,0,*77
1485003771.34,64358,9.88,74154.3,1.47,-32.13,-34.41,0,*72
1485003772.57,64359,9.88,74154.8,1.45,-32.97,-35.17,0,*7F
1485003773.85,64360,9.88,74152.5,1.47,-32.45,-34.65,0,*7C
1485003775.08,64361,9.88,74154.5,1.45,-32.13,-34.35,0,*79
1485003776.28,64362,9.88,74154.5,1.45,-32.35,-34.47,0,*7B
1485003777.5,64363,9.88,74152.0,1.45,-32.13,-34.31,0,*7F
1485003778.76,64364,9.88,74150.5,1.45,-32.29,-34.65,0,*70
1485003780.01,64365,9.88,74150.5,1.45,-32.29,-34.53,0,*74
1485003781.24,64366,9.88,74154.8,1.45,-32.45,-34.71,0,*7D
1485003782.5,64367,9.88,74148.5,1.45,-32.85,-35.07,0,*70
1485003783.73,64368,9.88,74154.8,1.45,-32.79,-35.01,0,*7A
1485003784.94,64369,9.88,74154.0,1.45,-33.15,-35.47,0,*72
1485003786.22,64370,9.88,74158.0,1.43,-32.79,-35.07,0,*73
1485003787.45,64371,9.88,74156.3,1.43,-33.03,-35.17,0,*7F
1485003788.68,64372,9.81,74148.3,1.39,-33.21,-35.41,0,*72
1485003789.92,64373,9.88,74156.0,1.39,-33.09,-35.29,0,*77
1485003791.12,64374,9.81,74150.3,1.39,-33.03,-35.13,0,*73
1485003792.36,64375,9.81,74150.5,1.39,-33.49,-35.71,0,*78
1485003793.62,64376,9.81,74152.5,1.39,-33.49,-35.65,0,*7E
1485003794.85,64377,9.88,74152.5,1.39,-32.69,-34.95,0,*72
1485003796.1,64378,9.88,74154.0,1.37,-32.35,-34.53,0,*70
1485003797.33,64379,9.88,74154.8,1.37,-32.57,-34.71,0,*75
1485003798.53,64380,9.88,74154.8,1.35,-32.57,-34.77,0,*77
1485003799.75,64381,9.81,74148.8,1.37,-32.39,-34.59,0,*70
1485003801.0,64382,9.88,74152.8,1.37,-32.35,-34.53,0,*75
1485003802.25,64383,9.88,74152.3,1.37,-32.01,-34.19,0,*7D
1485003803.52,64384,9.88,74150.8,1.37,-32.19,-34.35,0,*7D
1485003804.79,64385,9.88,74154.8,1.37,-32.19,-34.35,0,*7C
1485003806.04,64386,9.88,74154.5,1.35,-32.29,-34.65,0,*7B
1485003807.29,64387,9.88,74156.5,1.37,-33.27,-35.47,0,*76
1485003808.52,64388,9.88,74154.5,1.35,-33.27,-35.29,0,*73
1485003809.75,64389,9.88,74152.0,1.35,-32.79,-35.01,0,*72
1485003810.98,64390,9.88,74152.8,1.35,-32.57,-34.65,0,*75
1485003812.21,64391,9.88,74154.3,1.37,-33.03,-35.13,0,*76
1485003813.43,64392,9.88,74154.8,1.35,-33.15,-35.35,0,*74
1485003814.63,64393,9.81,74148.8,1.35,-32.91,-35.01,0,*7F
1485003815.88,64394,9.88,74148.5,1.35,-32.75,-34.83,0,*79
1485003817.13,64395,9.88,74152.8,1.33,-32.45,-34.71,0,*70
1485003818.38,64396,9.88,74158.3,1.33,-32.51,-34.65,0,*73
1485003819.61,64397,9.88,74158.3,1.35,-32.57,-34.65,0,*72
1485003820.81,64398,9.88,74156.3,1.35,-32.39,-34.59,0,*7A
1485003822.06,64399,9.88,74156.3,1.33,-32.35,-34.53,0,*7B
1485003823.3,64400,9.88,74154.8,1.33,-32.19,-34.41,0,*71
1485003824.5,64401,9.88,74152.5,1.35,-32.39,-34.59,0,*7D
1485003825.75,64402,9.88,74154.0,1.33,-32.51,-34.65,0,*79
1485003827.0,64403,9.88,74154.5,1.33,-32.35,-34.53,0,*7F
1485003828.27,64404,9.88,74154.5,1.33,-32.45,-34.53,0,*7F
1485003829.49,64405,9.88,74152.8,1.33,-32.35,-34.47,0,*7C
1485003830.77,64406,9.81,74150.0,1.33,-32.45,-34.65,0,*78
1485003832.02,64407,9.88,74154.0,1.33,-32.97,-35.01,0,*75
1485003833.26,64408,9.88,74156.0,1.35,-32.57,-34.65,0,*73
1485003834.45,64409,9.88,74156.0,1.35,-32.39,-34.59,0,*75
1485003835.7,64410,9.88,74152.5,1.35,-32.75,-34.83,0,*72
1485003836.92,64411,9.88,74152.0,1.35,-32.57,-34.83,0,*73
1485003838.15,64412,9.88,74152.3,1.35,-32.57,-34.65,0,*78
1485003839.38,64413,9.88,74150.3,1.33,-32.35,-34.47,0,*7B
1485003840.65,64414,9.88,74156.8,1.33,-32.45,-34.53,0,*7E
1485003841.93,64415,9.88,74154.5,1.33,-32.45,-34.65,0,*7A
1485003843.15,64416,9.88,74154.3,1.35,-32.45,-34.59,0,*70
1485003844.35,64417,9.88,74150.0,1.35,-32.39,-34.47,0,*75
1485003845.57,64418,9.88,74152.3,1.35,-32.45,-34.59,0,*7E
1485003846.83,64419,9.88,74154.3,1.37,-32.39,-34.53,0,*7C
1485003848.02,64420,9.88,74152.5,1.35,-32.39,-34.59,0,*7E
1485003849.23,64421,9.88,74152.0,1.35,-32.39,-34.47,0,*70
1485003850.44,64422,9.88,74152.5,1.35,-32.13,-34.35,0,*7E
1485003851.7,64423,9.88,74158.3,1.35,-32.79,-34.95,0,*79
1485003852.93,64424,9.88,74158.3,1.35,-32.57,-34.65,0,*7D
1485003854.13,64425,9.88,74152.5,1.35,-32.39,-34.59,0,*7B
1485003855.36,64426,9.88,74154.0,1.35,-32.57,-34.65,0,*7F
1485003856.55,64427,9.88,74154.3,1.35,-32.13,-34.25,0,*7A
1485003857.76,64428,9.88,74156.3,1.35,-32.29,-34.41,0,*7E
1485003858.96,64429,9.88,74154.0,1.35,-32.39,-34.47,0,*78
1485003860.19,64430,9.88,74154.0,1.35,-32.57,-34.65,0,*78
1485003861.39,64431,9.88,74158.0,1.35,-32.39,-34.47,0,*71
1485003862.64,64432,9.88,74158.3,1.35,-32.75,-34.83,0,*72
1485003863.89,64433,9.88,74150.8,1.35,-32.63,-34.95,0,*73
1485003865.12,64434,9.88,74152.5,1.35,-32.29,-34.47,0,*75
1485003866.37,64435,9.88,74152.0,1.33,-32.35,-34.65,0,*7F
1485003867.64,64436,9.88,74154.5,1.33,-32.97,-35.07,0,*71
1485003868.87,64437,9.88,74152.5,1.35,-32.57,-34.65,0,*7F
1485003870.09,64438,9.88,74154.3,1.35,-32.45,-34.59,0,*7C
1485003871.29,64439,9.88,74154.0,1.35,-32.39,-34.47,0,*79
1485003872.52,64440,9.88,74154.8,1.35,-32.39,-34.65,0,*77
1485003873.71,64441,9.88,74158.0,1.35,-32.35,-34.41,0,*7C
1485003874.9,64442,9.88,74156.0,1.35,-32.39,-34.59,0,*7A
1485003876.16,64443,9.88,74156.0,1.35,-32.45,-34.65,0,*7F
1485003877.41,64444,9.88,74158.8,1.35,-32.75,-34.95,0,*74
1485003878.6,64445,9.88,74154.3,1.35,-32.23,-34.25,0,*7D
1485003879.81,64446,9.88,74156.0,1.35,-32.23,-34.35,0,*7F
1485003881.06,64447,9.88,74154.3,1.33,-32.35,-34.53,0,*7F
1485003882.3,64448,9.88,74156.0,1.33,-32.35,-34.53,0,*70
1485003883.53,64449,9.88,74158.3,1.33,-32.69,-34.71,0,*78
1485003884.76,64450,9.88,74154.3,1.33,-32.35,-34.47,0,*7C
1485003885.99,64451,9.88,74152.0,1.35,-32.29,-34.35,0,*73
1485003887.18,64452,9.88,74152.8,1.35,-32.23,-34.25,0,*7B
1485003888.37,64453,9.88,74154.0,1.35,-32.39,-34.41,0,*73
1485003889.59,64454,9.88,74156.8,1.35,-32.13,-34.35,0,*7F
1485003890.79,64455,9.88,74154.0,1.35,-32.39,-34.59,0,*7C
1485003892.03,64456,9.88,74154.0,1.35,-32.29,-34.35,0,*74
1485003893.25,64457,9.88,74154.5,1.35,-32.29,-34.59,0,*7F
1485003894.47,64458,9.88,74156.3,1.37,-32.39,-34.59,0,*73
1485003895.72,64459,9.88,74158.3,1.35,-32.45,-34.65,0,*74
1485003896.92,64460,9.88,74158.0,1.35,-32.39,-34.59,0,*7A
1485003898.18,64461,9.88,74154.8,1.35,-32.79,-34.95,0,*7F
1485003899.45,64462,9.88,74152.5,1.33,-32.63,-34.83,0,*76
1485003900.68,64463,9.88,74156.3,1.35,-32.75,-34.77,0,*7D
1485003901.93,64464,9.88,74156.8,1.31,-32.63,-34.53,0,*7F
1485003903.15,64465,9.88,74154.8,1.33,-32.35,-34.47,0,*7A
1485003904.4,64466,9.88,74152.8,1.33,-32.85,-34.89,0,*70
1485003905.65,64467,9.88,74152.0,1.33,-32.79,-34.71,0,*75
1485003906.91,64468,9.88,74156.0,1.33,-32.51,-34.53,0,*70
1485003908.13,64469,9.88,74152.0,1.33,-32.69,-34.89,0,*7D
1485003909.41,64470,9.88,74154.3,1.33,-32.79,-34.83,0,*7E
1485003910.66,64471,9.88,74154.8,1.33,-32.45,-34.47,0,*78
1485003911.91,64472,9.88,74152.0,1.33,-32.51,-34.53,0,*7B
1485003913.16,64473,9.88,74152.5,1.33,-32.29,-34.47,0,*70
1485003914.43,64474,9.88,74158.3,1.33,-32.97,-35.07,0,*77
1485003915.68,64475,9.88,74158.5,1.33,-32.63,-34.71,0,*7D
1485003916.91,64476,9.88,74156.3,1.31,-32.69,-34.83,0,*7B
1485003918.12,64477,9.88,74154.5,1.31,-32.69,-34.89,0,*70
1485003919.35,64478,9.88,74150.3,1.31,-32.51,-34.65,0,*76
1485003920.59,64479,9.88,74156.5,1.33,-32.35,-34.53,0,*72
1485003921.84,64480,9.88,74154.3,1.33,-32.45,-34.41,0,*70
1485003923.05,64481,9.88,74152.0,1.33,-32.35,-34.41,0,*76
1485003924.26,64482,9.88,74154.3,1.31,-32.29,-34.25,0,*78
1485003925.52,64483,9.88,74152.3,1.31,-32.45,-34.65,0,*77
1485003926.74,64484,9.88,74154.5,1.31,-32.63,-34.71,0,*71
1485003927.93,64485,9.88,74152.0,1.31,-32.35,-34.41,0,*70
1485003929.16,64486,9.88,74152.3,1.31,-32.51,-34.53,0,*72
1485003930.42,64487,9.88,74154.5,1.31,-32.45,-34.53,0,*76
1485003931.65,64488,9.88,74154.8,1.31,-32.69,-34.83,0,*7A
1485003932.9,64489,9.88,74152.8,1.31,-32.63,-34.65,0,*79
1485003934.15,64490,9.88,74154.8,1.33,-33.15,-35.07,0,*76
1485003935.38,64491,9.88,74154.0,1.33,-32.69,-34.71,0,*7D
1485003936.63,64492,9.88,74154.0,1.29,-32.91,-34.95,0,*78
1485003937.86,64493,9.88,74154.3,1.29,-33.21,-35.13,0,*7C
1485003939.11,64494,9.88,74152.0,1.29,-33.03,-35.07,0,*7E
1485003940.36,64495,9.88,74152.8,1.29,-32.91,-34.95,0,*7F
1485003941.59,64496,9.88,74156.0,1.29,-32.39,-34.47,0,*71
1485003942.79,64497,9.88,74156.8,1.27,-32.57,-34.71,0,*73
1485003944.04,64498,9.88,74154.8,1.29,-32.75,-34.89,0,*75
1485003945.3,64499,9.88,74156.5,1.29,-32.75,-34.89,0,*74
1485003946.57,64500,9.88,74154.8,1.29,-33.09,-35.07,0,*78
1485003947.85,64501,9.88,74154.3,1.29,-33.09,-35.07,0,*79
1485003949.08,64502,9.88,74154.5,1.29,-32.69,-34.77,0,*7B
1485003950.31,64503,9.88,74158.3,1.29,-32.69,-34.77,0,*7A
1485003951.52,64504,9.88,74154.3,1.27,-32.51,-34.47,0,*7B
1485003952.76,64505,9.88,74152.0,1.29,-32.35,-34.35,0,*73
1485003953.96,64506,9.88,74152.8,1.27,-32.51,-34.59,0,*76
1485003955.18,64507,9.88,74156.5,1.29,-32.35,-34.47,0,*74
1485003956.39,64508,9.88,74156.3,1.27,-32.39,-34.47,0,*79
1485003957.63,64509,9.88,74158.5,1.29,-32.35,-34.35,0,*7F
1485003958.88,64510,9.88,74158.5,1.29,-32.39,-34.53,0,*7B
1485003960.11,64511,9.88,74158.0,1.29,-32.57,-34.59,0,*78
1485003961.33,64512,9.88,74152.5,1.27,-32.85,-34.89,0,*77
1485003962.56,64513,9.88,74152.5,1.29,-32.57,-34.59,0,*7A
1485003963.79,64514,9.88,74154.3,1.27,-32.51,-34.53,0,*7F
1485003965.02,64515,9.88,74152.5,1.27,-32.19,-34.13,0,*76
1485003966.24,64516,9.88,74154.8,1.27,-32.19,-34.13,0,*75
1485003967.51,64517,9.88,74158.3,1.29,-32.19,-34.19,0,*70
1485003968.76,64518,9.88,74156.8,1.29,-32.39,-34.35,0,*73
1485003969.99,64519,9.88,74154.8,1.29,-32.69,-34.71,0,*77
1485003971.2,64520,9.88,74152.8,1.27,-32.35,-34.31,0,*7E
1485003972.44,64521,9.88,74152.5,1.29,-32.35,-34.31,0,*71
1485003973.67,64522,9.88,74152.3,1.29,-32.39,-34.47,0,*7F
1485003974.9,64523,9.88,74154.5,1.29,-32.69,-34.59,0,*74
1485003976.13,64524,9.88,74152.3,1.27,-32.39,-34.53,0,*72
1485003977.35,64525,9.88,74154.8,1.27,-32.39,-34.35,0,*73
1485003978.58,64526,9.88,74154.5,1.29,-32.39,-34.47,0,*7B
1485003979.81,64527,9.88,74156.3,1.27,-32.51,-34.53,0,*7F
1485003981.04,64528,9.88,74152.5,1.29,-32.57,-34.59,0,*72
1485003982.26,64529,9.88,74154.8,1.29,-32.57,-34.71,0,*79
1485003983.5,64530,9.88,74154.8,1.27,-32.75,-34.77,0,*79
1485003984.73,64531,9.88,74150.3,1.27,-32.51,-34.53,0,*78
1485003985.96,64532,9.88,74154.5,1.29,-32.69,-34.59,0,*74
1485003987.19,64533,9.88,74150.5,1.29,-32.51,-34.47,0,*71
1485003988.41,64534,9.88,74154.0,1.29,-32.57,-34.59,0,*7F
1485003989.67,64535,9.88,74152.8,1.29,-32.57,-34.53,0,*74
1485003990.87,64536,9.88,74154.0,1.27,-32.39,-34.47,0,*74
1485003992.1,64537,9.88,74154.0,1.29,-32.51,-34.47,0,*75
1485003993.33,64538,9.88,74156.3,1.27,-32.75,-34.89,0,*70
1485003994.58,64539,9.88,74154.8,1.29,-32.75,-34.71,0,*78
1485003995.79,64540,9.88,74154.8,1.27,-32.57,-34.59,0,*72
1485003997.02,64541,9.94,74158.3,1.29,-32.69,-34.71,0,*7A
1485003998.22,64542,9.88,74154.0,1.27,-32.51,-34.47,0,*79
1485003999.45,64543,9.88,74154.5,1.27,-32.85,-34.77,0,*72
1485004000.69,64544,9.88,74152.0,1.27,-32.75,-34.77,0,*7A
1485004001.88,64545,9.88,74146.8,1.27,-32.91,-34.89,0,*70
1485004003.13,64546,9.88,74152.3,1.25,-32.91,-34.83,0,*7B
1485004004.41,64547,9.88,74152.0,1.25,-32.75,-34.65,0,*78
1485004005.69,64548,9.88,74152.0,1.25,-32.79,-34.95,0,*74
1485004006.95,64549,9.88,74152.0,1.25,-32.79,-34.77,0,*79
1485004008.2,64550,9.94,74158.5,1.25,-33.09,-35.01,0,*77
1485004009.46,64551,9.88,74152.5,1.25,-33.09,-35.13,0,*75
1485004010.71,64552,9.88,74152.3,1.25,-33.31,-35.29,0,*74
1485004011.99,64553,9.88,74154.3,1.25,-33.09,-34.95,0,*78
1485004013.26,64554,9.88,74152.0,1.23,-32.75,-34.95,0,*73
1485004014.48,64555,9.88,74150.3,1.25,-32.91,-34.77,0,*72
1485004015.71,64556,9.88,74152.0,1.23,-32.91,-34.95,0,*7B
1485004016.96,64557,9.94,74156.5,1.25,-32.57,-34.53,0,*7C
1485004018.18,64558,9.88,74152.8,1.23,-32.45,-34.41,0,*75
1485004019.41,64559,9.88,74154.0,1.25,-32.91,-35.01,0,*7E
1485004020.67,64560,9.88,74146.8,1.23,-33.43,-35.35,0,*7B
1485004021.9,64561,9.88,74154.3,1.23,-32.91,-34.95,0,*7F
1485004023.18,64562,9.88,74152.8,1.25,-32.63,-34.65,0,*78
1485004024.43,64563,9.88,74152.5,1.23,-32.97,-34.95,0,*7B
1485004025.66,64564,9.88,74154.3,1.23,-32.91,-34.83,0,*7D
1485004026.86,64565,9.88,74150.8,1.23,-32.57,-34.59,0,*71
1485004028.09,64566,9.88,74152.3,1.21,-32.69,-34.71,0,*77
1485004029.32,64567,9.88,74152.3,1.21,-32.51,-34.59,0,*77
1485004030.58,64568,9.88,74154.3,1.23,-32.79,-34.95,0,*70
1485004031.84,64569,9.88,74152.0,1.23,-32.75,-34.83,0,*7A
1485004033.04,64570,9.88,74152.0,1.23,-33.15,-35.13,0,*7D
1485004034.27,64571,9.88,74154.5,1.23,-33.55,-35.53,0,*7C
1485004035.55,64572,9.88,74154.8,1.17,-33.43,-35.41,0,*7C
1485004036.76,64573,9.88,74148.3,1.23,-33.15,-35.13,0,*7E
1485004038.01,64574,9.88,74148.8,1.17,-33.03,-34.95,0,*76
1485004039.25,64575,9.88,74150.3,1.21,-32.45,-34.41,0,*78
1485004040.51,64576,9.88,74148.3,1.17,-32.63,-34.59,0,*73
1485004041.76,64577,9.88,74152.0,1.17,-32.75,-34.71,0,*7F
1485004043.0,64578,9.88,74152.8,1.17,-33.21,-35.13,0,*75
1485004044.27,64579,9.88,74150.0,1.21,-33.31,-35.35,0,*74
1485004045.52,64580,9.94,74154.0,1.21,-32.97,-34.89,0,*79
1485004046.77,64581,9.88,74150.0,1.17,-32.91,-34.95,0,*76
1485004048.03,64582,9.88,74150.8,1.17,-33.03,-34.95,0,*7F
1485004049.26,64583,9.88,74152.5,1.17,-33.21,-35.13,0,*71
1485004050.51,64584,9.88,74152.5,1.17,-32.85,-34.71,0,*7C
1485004051.77,64585,9.88,74152.3,1.17,-32.85,-34.77,0,*7B
1485004053.01,64586,9.88,74150.0,1.17,-32.69,-34.77,0,*7A
1485004054.27,64587,9.94,74154.3,1.17,-32.57,-34.65,0,*75
1485004055.52,64588,9.94,74154.5,1.21,-32.45,-34.47,0,*7C
1485004056.77,64589,9.88,74154.3,1.17,-32.85,-34.89,0,*76
1485004058.03,64590,9.88,74148.3,1.17,-32.57,-34.53,0,*76
1485004059.28,64591,9.88,74148.0,1.17,-32.85,-34.89,0,*7F
1485004060.51,64592,9.88,74146.5,1.17,-32.51,-34.47,0,*77
1485004061.77,64593,9.94,74154.3,1.17,-32.57,-34.53,0,*75
1485004063.03,64594,9.88,74150.0,1.17,-32.57,-34.53,0,*72
1485004064.26,64595,9.94,74152.5,1.17,-32.69,-34.71,0,*7E
1485004065.51,64596,9.88,74152.0,1.17,-32.85,-34.89,0,*78
1485004066.79,64597,9.88,74150.3,1.17,-33.09,-35.07,0,*7B
1485004068.05,64598,9.94,74154.3,1.15,-33.09,-35.23,0,*70
1485004069.29,64599,9.94,74152.3,1.15,-33.09,-35.13,0,*72
1485004070.52,64600,9.94,74152.3,1.13,-33.03,-35.01,0,*7E
1485004071.76,64601,9.88,74148.5,1.15,-32.57,-34.53,0,*7F
1485004073.0,64602,9.94,74150.0,1.15,-32.75,-34.77,0,*7A
1485004074.27,64603,9.88,74150.3,1.15,-32.75,-34.65,0,*78
1485004075.54,64604,9.88,74148.3,1.15,-32.75,-34.65,0,*7F
1485004076.77,64605,9.88,74146.8,1.15,-32.75,-34.71,0,*7B
1485004078.0,64606,9.94,74150.8,1.15,-32.51,-34.35,0,*7E
1485004079.24,64607,9.94,74152.0,1.15,-32.85,-34.89,0,*71
1485004080.5,64608,9.94,74150.0,1.13,-33.27,-35.29,0,*7A
1485004081.73,64609,9.94,74154.8,1.15,-33.03,-35.07,0,*77
1485004083.01,64610,9.94,74154.3,1.13,-33.43,-35.35,0,*7C
1485004084.25,64611,9.88,74148.0,1.11,-33.27,-35.29,0,*70
1485004085.51,64612,9.88,74148.3,1.13,-32.79,-34.77,0,*71
1485004086.77,64613,9.88,74148.8,1.13,-32.63,-34.59,0,*77
1485004088.02,64614,9.94,74152.3,1.13,-32.39,-34.35,0,*75
1485004089.24,64615,9.88,74148.8,1.11,-32.39,-34.35,0,*76
1485004090.44,64616,9.94,74152.5,1.11,-32.35,-34.25,0,*78
1485004091.63,64617,9.94,74154.0,1.11,-32.35,-34.25,0,*79
1485004092.85,64618,9.94,74156.5,1.15,-32.35,-34.35,0,*73
1485004094.11,64619,9.88,74150.5,1.13,-33.09,-35.01,0,*7C
1485004095.34,64620,9.94,74152.3,1.13,-33.15,-35.13,0,*78
1485004096.61,64621,9.88,74150.3,1.13,-32.75,-34.71,0,*7B
1485004097.85,64622,9.88,74148.5,1.11,-32.45,-34.35,0,*79
1485004099.09,64623,9.94,74150.3,1.11,-32.97,-35.01,0,*71
1485004100.35,64624,9.88,74148.3,1.11,-32.79,-34.95,0,*7A
1485004101.59,64625,9.94,74154.5,1.11,-32.79,-34.77,0,*77
1485004102.81,64626,9.94,74150.5,1.11,-32.45,-34.59,0,*77
1485004104.08,64627,9.88,74150.3,1.09,-32.79,-35.01,0,*7C
1485004105.31,64628,9.94,74152.5,1.11,-32.63,-34.59,0,*7D
1485004106.57,64629,9.94,74152.8,1.11,-32.79,-34.95,0,*77
1485004107.8,64630,9.94,74152.8,1.11,-33.09,-35.01,0,*75
1485004109.04,64631,9.88,74150.0,1.11,-32.57,-34.53,0,*78
1485004110.26,64632,9.88,74152.8,1.11,-32.45,-34.41,0,*7B
1485004111.51,64633,9.94,74154.0,1.11,-32.19,-34.19,0,*7E